Slidell, LA

1:25 AM CDT on October 18, 2017 (GMT -0500)
Slidell

Weather History for KASD - October, 2011

Change the Weather History Date:

Sunday, October 30, 2011

  Actual Average (KNEW) Record (KNEW)
Temperature  
Mean Temperature 50 °F -  
Max Temperature 70 °F 76 °F 87 °F (1979)
Min Temperature 33 °F 61 °F 36 °F (1952)
Degree Days  
Heating Degree Days 14    
Moisture  
Dew Point 41 °F    
Average Humidity 69    
Maximum Humidity 89    
Minimum Humidity 39    
Precipitation  
Precipitation 0.00 in - - ()
Sea Level Pressure  
Sea Level Pressure 30.17 in    
Wind  
Wind Speed 2 mph (NE)    
Max Wind Speed 8 mph    
Max Gust Speed -    
Visibility 10 miles    
Events      
Averages and records for this station are not official NWS values.
T = Trace of Precipitation, MM = Missing Value Source: NWS Daily Summary

Daily Weather History Graph

Daily Weather History Graph

Search for Another Location

Airport or City:

Trip Planner

Search our weather history database for the weather conditions in past years. The results will help you decide how hot, cold, wet, or windy it might be!

Date:

Astronomy

Oct. 30, 2011 Rise Set
Actual Time 7:11 AM CDT 6:13 PM CDT
Civil Twilight 6:47 AM CDT 6:38 PM CDT
Nautical Twilight 6:18 AM CDT 7:06 PM CDT
Astronomical Twilight 5:50 AM CDT 7:34 PM CDT
Moon 11:19 AM CDT (10/30) 9:53 PM CDT (10/30)
Length of Visible Light 11h 51m
Length of Day
11h 01m
Waxing Crescent, 20% of the Moon is Illuminated
Oct 30
Waxing Crescent
Nov 2
First Quarter
Nov 10
Full
Nov 18
Last Quarter
Nov 25
New

Hourly Weather History & Observations

Time (CDT) Temp. Windchill Dew Point Humidity Pressure Visibility Wind Dir Wind Speed Gust Speed Precip Events Conditions
12:53 AM 39.0 °F - 35.1 °F 86% 30.16 in 10.0 mi Calm Calm - N/A   Clear
1:53 AM 37.0 °F - 34.0 °F 89% 30.17 in 10.0 mi Calm Calm - N/A   Clear
3:53 AM 35.1 °F - 32.0 °F 89% 30.15 in 10.0 mi Calm Calm - N/A   Clear
4:53 AM 33.1 °F 30.0 °F 30.0 °F 89% 30.16 in 10.0 mi North 3.5 mph - N/A   Clear
5:53 AM 33.1 °F 30.0 °F 30.0 °F 89% 30.17 in 10.0 mi North 3.5 mph - N/A   Clear
7:53 AM 37.0 °F - 33.1 °F 86% 30.20 in 10.0 mi Calm Calm - N/A   Clear
8:53 AM 52.0 °F - 37.0 °F 57% 30.21 in 10.0 mi ENE 6.9 mph - N/A   Clear
9:53 AM 57.0 °F - 37.0 °F 47% 30.21 in 10.0 mi ENE 8.1 mph - N/A   Clear
10:53 AM 60.1 °F - 35.1 °F 39% 30.21 in 10.0 mi ENE 8.1 mph - N/A   Clear
11:53 AM 64.9 °F - 39.0 °F 39% 30.20 in 10.0 mi Variable 4.6 mph - N/A   Clear
12:53 PM 66.0 °F - 42.1 °F 42% 30.19 in 10.0 mi Variable 4.6 mph - N/A   Clear
1:53 PM 68.0 °F - 44.1 °F 42% 30.16 in 10.0 mi East 4.6 mph - N/A   Clear
2:53 PM 68.0 °F - 46.0 °F 45% 30.14 in 10.0 mi Calm Calm - N/A   Clear
3:53 PM 68.0 °F - 46.0 °F 45% 30.14 in 10.0 mi Calm Calm - N/A   Scattered Clouds
4:53 PM 68.0 °F - 46.9 °F 47% 30.14 in 10.0 mi ENE 4.6 mph - N/A   Mostly Cloudy
5:53 PM 64.9 °F - 51.1 °F 61% 30.14 in 10.0 mi Calm Calm - N/A   Partly Cloudy
6:53 PM 57.9 °F - 52.0 °F 81% 30.15 in 10.0 mi Calm Calm - N/A   Clear
7:53 PM 54.0 °F - 50.0 °F 86% 30.16 in 10.0 mi North 3.5 mph - N/A   Partly Cloudy
8:53 PM 52.0 °F - 48.9 °F 89% 30.18 in 10.0 mi Calm Calm - N/A   Partly Cloudy
9:53 PM 50.0 °F - 46.0 °F 86% 30.19 in 10.0 mi Calm Calm - N/A   Clear
10:53 PM 48.0 °F - 44.1 °F 86% 30.20 in 10.0 mi Calm Calm - N/A   Partly Cloudy
11:53 PM 46.0 °F - 43.0 °F 89% 30.19 in 10.0 mi Calm Calm - N/A   Clear